Regional Weather Roundup
Issued by NWS

Home | Current Version | Previous Version | Graphics & Text | Print | Product List | Glossary On
Versions: 1 2 3 4 5 6 7 8 9 10 11 12 13 14 15 16 17 18 19 20 21 22 23 24 25 26 27 28 29 30 31 32 33 34 35 36 37 38 39 40 41 42 43 44 45 46 47 48 49 50
000
ASUS43 KMKX 220600
RWRWI

WISCONSIN REGIONAL WEATHER ROUNDUP
NATIONAL WEATHER SERVICE MILWAUKEE/SULLIVAN WI
100 AM CDT WED OCT 22 2014

NOTE: "FAIR" INDICATES FEW OR NO CLOUDS BELOW 12,000 FEET WITH NO
SIGNIFICANT WEATHER AND/OR OBSTRUCTIONS TO VISIBILITY.

WIZ001-002-006>008-014>016-023>028-220700-
NORTHWEST WISCONSIN

CITY           SKY/WX    TMP DP  RH WIND       PRES   REMARKS
SUPERIOR ARPT  CLEAR     31  30  99 CALM      30.21F
ASHLAND        PTCLDY    29  27  92 CALM      30.25F
6HR MIN TEMP:  28; 6HR MAX TEMP:  38;

HAYWARD        CLEAR     40  34  79 SE5       30.23S
6HR MIN TEMP:  39; 6HR MAX TEMP:  46;

SIREN          CLEAR     44  36  73 S10       30.20S
CUMBERLAND     CLEAR     37  34  87 SE6       30.22S WCI  33
RICE LAKE      CLEAR     39  35  85 SE6       30.24S WCI  35
CHETEK         CLEAR     39  35  86 SE5       30.24S
LADYSMITH      CLEAR     36  33  88 SE5       30.27S WCI  32
EAU CLAIRE     CLEAR     41  34  76 SE8       30.25R
6HR MIN TEMP:  39; 6HR MAX TEMP:  49;

MENOMONIE      CLEAR     38  35  86 SE7       30.24S WCI  33
NEW RICHMOND   CLEAR     41  35  79 SE7       30.20S
OSCEOLA        CLEAR     44  37  76 SE9       30.22S
$$

WIZ003>005-009-010-017-018-220700-
NORTH CENTRAL WISCONSIN

CITY           SKY/WX    TMP DP  RH WIND       PRES   REMARKS
MANITOWISH WTR CLEAR     34  32  90 SE5       30.26R WCI  30
ARBOR VITAE    CLEAR     38  32  80 SE5       30.27R WCI  34
WOODRUFF       CLEAR     38  32  80 SE5       30.27R WCI  34
RHINELANDER    CLEAR     32  29  88 E5        30.28S WCI  27
6HR MIN TEMP:  31; 6HR MAX TEMP:  39;

EAGLE RIVER    CLEAR     32  28  84 CALM      30.28R
LAND O LAKES   CLEAR     28  27  96 CALM      30.28S
PHILLIPS       CLEAR     30  29  97 SE3       30.26R
TOMAHAWK       CLEAR     31  29  95 CALM      30.28S
MEDFORD        CLEAR     33  31  94 S3        30.27R
MERRILL        CLEAR     30  29  97 SE3       30.28S
$$

WIZ029-030-035-036-043>047-220700-
CENTRAL WISCONSIN

CITY           SKY/WX    TMP DP  RH WIND       PRES   REMARKS
WAUSAU         PTCLDY    34  30  85 CALM      30.28S
6HR MIN TEMP:  33; 6HR MAX TEMP:  45;

MOSINEE        CLEAR     32  32 100 E5        30.29S WCI  27
MARSHFIELD     CLEAR     35  33  92 CALM      30.27S
6HR MIN TEMP:  35; 6HR MAX TEMP:  46;

STEVENS POINT  CLEAR     28  27  96 CALM      30.29S
WAUPACA        CLEAR     32  32  98 CALM      30.30S
WAUTOMA        NOT AVBL
WISC RAPIDS    FOG       30  29  96 CALM      30.30R VSB 1
6HR MIN TEMP:  30; 6HR MAX TEMP:  40;

CAMP DOUGLAS   CLEAR     28  28 100 SE3       30.29R
$$

WIZ011>013-019>022-031-037>040-048>050-220700-
NORTHEAST WISCONSIN

CITY           SKY/WX    TMP DP  RH WIND       PRES   REMARKS
ANTIGO         CLEAR     32  30  92 E5        30.29S WCI  28
SHAWANO        CLEAR     39  34  82 N5        30.31S
OCONTO         CLEAR     32  32  99 CALM      30.31S
STURGEON BAY   CLEAR     39  36  87 CALM      30.31R
6HR MIN TEMP:  37; 6HR MAX TEMP:  45;

GREEN BAY      CLEAR     31  30  96 CALM      30.30F
6HR MIN TEMP:  31; 6HR MAX TEMP:  42;

MANITOWOC      NOT AVBL
APPLETON       CLEAR     36  32  87 CALM      30.29S
CLINTONVILLE   CLEAR     32  30  93 CALM      30.30S
OSHKOSH        CLEAR     36  34  92 CALM      30.29S
6HR MIN TEMP:  33; 6HR MAX TEMP:  47;

$$

WIZ032>034-041-042-053>061-220700-
SOUTHWEST WISCONSIN

CITY           SKY/WX    TMP DP  RH WIND       PRES   REMARKS
LA CROSSE      CLEAR     39  34  82 E7        30.27R WCI  34
6HR MIN TEMP:  39; 6HR MAX TEMP:  51;

SPARTA         CLEAR     28  28  99 CALM      30.28S
VIROQUA        CLEAR     37  37 100 SE5       30.26S WCI  34
BOSCOBEL       CLEAR     32  30  92 E3        30.29S FOG
6HR MIN TEMP:  31; 6HR MAX TEMP:  49;

PRAIRIE DU CHI CLEAR     40  35  81 CALM      30.27F
PLATTEVILLE    CLEAR     37  34  90 E8        30.28R WCI  30
$$

WIZ056-057-062-063-064-067-068-220700-
SOUTH CENTRAL WISCONSIN

CITY           SKY/WX    TMP DP  RH WIND       PRES   REMARKS
REEDSBURG      CLEAR     32  31  97 CALM      30.29R
BARABOO/DELLS  CLEAR     32  31  96 CALM      30.29S FOG
LONE ROCK      NOT AVBL
MINERAL POINT  CLEAR     37  34  87 E3        30.26F
MADISON        CLEAR     30  29  96 CALM      30.30R FOG
6HR MIN TEMP:  30; 6HR MAX TEMP:  41;

MIDDLETON      CLEAR     32  32 100 CALM      30.29S
WATERTOWN      FOG       29  28  96 CALM      30.28S VSB 3/4
MONROE         CLEAR     37  36  93 E5        30.27S WCI  34
JANESVILLE       N/A     32  32 100 CALM      30.28S FOG
$$

WIZ051-052-058>065-066-070>072-220700-
SOUTHEAST WISCONSIN

CITY           SKY/WX    TMP DP  RH WIND       PRES   REMARKS
MILWAUKEE      PTCLDY    40  35  83 W5        30.28R
6HR MIN TEMP:  40; 6HR MAX TEMP:  46;

WAUKESHA       CLEAR     32  32 100 CALM      30.29S
MILWAUKEE/TIMM CLEAR     34  32  93 CALM      30.28S
RACINE         PTCLDY    41  37  86 N3        30.29R
6HR MIN TEMP:  40; 6HR MAX TEMP:  46;

BURLINGTON     CLEAR     28  28 100 CALM      30.28R
KENOSHA        CLEAR     38  34  85 NW6       30.27S WCI  33
6HR MIN TEMP:  34; 6HR MAX TEMP:  43;

FOND DU LAC    CLEAR     31  30  96 CALM      30.30R
6HR MIN TEMP:  30; 6HR MAX TEMP:  44;

SHEBOYGAN      CLEAR     31  29  92 NW5       30.30R WCI  26
6HR MIN TEMP:  30; 6HR MAX TEMP:  40;

WEST BEND        N/A     32  30  93 CALM      30.28S FOG
JUNEAU         CLEAR     31  31  99 CALM      30.29S FOG
$$

LSZ147-162-220700-
LAKE SUPERIOR

STATION/POSITION TIME  TEMP    WIND        PRES    WAVE
                       AIR SEA DIR/SP/G            HT/PER
                 (UTC) (F)     (DEG/KT/KT) (MB)    (FT/S)
W MID LAKE BUOY  0450   44 46  130/ 14/ 16 1025.1F   2/ 4
DEVILS ISLAND    0500   45     140/  8/  9 1025.0R
PORT WING        0540   38     150/  2/  3 1023.7S
SAXON HARBOR     0500   33        CALM     1024.0S
$$

LMZ867-665-643>646-220700-
LAKE MICHIGAN

STATION/POSITION TIME  TEMP    WIND        PRES    WAVE
                       AIR SEA DIR/SP/G            HT/PER
                 (UTC) (F)     (DEG/KT/KT) (MB)    (FT/S)
CHAMBERS ISLAND  0500   44      50/  6/  9 1026.4S
N MID LAKE BUOY  0450   46 51   70/ 10/ 12 1026.6R   2/ 4
NORTHPORT PIER   0500   45      80/  8/ 11 1026.1S
SISTER BAY       0442             CALM       N/A
KEWAUNEE LAKESHO 0500   46      70/  5/  9 1024.8S
SHEBOYGAN LAKESH 0500   47 49   60/ 14/ 16 1026.1F
PORT WASHINGTON  0500   48      60/  9/ 12 1025.7S
ATWATER BUOY     0500   49      60/ 10/ 14 1025.8R
MILWAUKEE LAKESH 0500   48      60/ 11/ 13   N/A
S MID LAKE BUOY  0450   50 54   50/ 14/ 16 1024.7F   5/ 7
KENOSHA   LAKESH 0500   49      50/ 10/ 12 1024.7S
$$

TC  - TEMPERATURE IN CELSIUS
VSB - VISIBILITY IN STATUTE MILES
WCI - WIND CHILL INDEX
HX  - HEAT INDEX




USA.gov is the U.S. government's official web portal to all federal, state and local government web resources and services.